Regional Weather Roundup
Issued by NWS

Home | Current Version | Previous Version | Text Only | Print | Product List | Glossary Off
Versions: 1 2 3 4 5 6 7 8 9 10 11 12 13 14 15 16 17 18 19 20 21 22 23 24 25 26 27 28 29 30 31 32 33 34 35 36 37 38 39 40 41 42 43 44 45 46 47 48 49 50

000
ASUS43 KLSX 292359
RWRMO

WEATHER SUMMARY FOR MISSOURI
NATIONAL WEATHER SERVICE SPRINGFIELD MO
700 PM CDT WED JUL 29 2015

NOTE: "FAIR" INDICATES FEW OR NO CLOUDS BELOW 12,000 FEET WITH NO
       SIGNIFICANT WEATHER AND/OR OBSTRUCTIONS TO VISIBILITY.
       CURRENT SKY AND/OR WEATHER CONDITIONS ARE NOT AVAILABLE FOR
       CHILLICOTHE AND FARMINGTON.

MOZ001>031-035>038-043-044-053-054-300100-
...NORTHERN AND WESTERN MISSOURI...

CITY           SKY/WX    TMP DP  RH WIND       PRES   REMARKS
KANSAS CTY INT MOSUNNY   82  67  60 N6        30.14S
6HR MIN TEMP:  80; 6HR MAX TEMP:  85; 6HR PCP: TRACE;

KANSAS C DTWN  PTSUNNY   84  66  54 N8        30.12S
6HR MIN TEMP:  84; 6HR MAX TEMP:  88;

LEE`S SUMMIT   MOSUNNY   82  65  56 N9        30.13S
6HR MIN TEMP:  82; 6HR MAX TEMP:  86;

ST JOSEPH      SUNNY     82  65  56 NW5       30.14F
6HR MIN TEMP:  81; 6HR MAX TEMP:  84;

CHILLICOTHE      N/A     84  69  60 CALM      30.13F
6HR MIN TEMP:  83; 6HR MAX TEMP:  86;

KIRKSVILLE     MOSUNNY   81  63  54 NW5       30.12S
6HR MIN TEMP:  79; 6HR MAX TEMP:  84;


$$
MOZ066>068-077>081-088>096-101>105-300100-
...SOUTHWEST MISSOURI...

CITY           SKY/WX    TMP DP  RH WIND       PRES   REMARKS
SPRINGFIELD    SUNNY     86  71  60 N10       30.09R HX  91
6HR MIN TEMP:  85; 6HR MAX TEMP:  94;

JOPLIN         SUNNY     84  71  65 NE8       30.08R
6HR MIN TEMP:  84; 6HR MAX TEMP:  97;


$$
MOZ032>034-039>042-045>050-055>058-069>072-300100-
...CENTRAL MISSOURI...

CITY           SKY/WX    TMP DP  RH WIND       PRES   REMARKS
COLUMBIA       SUNNY     83  64  52 N12       30.10S
6HR MIN TEMP:  83; 6HR MAX TEMP:  87;

JEFFERSON CITY SUNNY     85  63  47 N7        30.08R
6HR MIN TEMP:  84; 6HR MAX TEMP:  87;

ROLLA          SUNNY     83  64  52 N8        30.08S
6HR MIN TEMP:  83; 6HR MAX TEMP:  88;

SEDALIA        MOSUNNY   84  64  50 NE6       30.12S
6HR MIN TEMP:  82; 6HR MAX TEMP:  88;

OSAGE BEACH    SUNNY     82  64  54 N5        30.10S

$$
MOZ051-052-059>065-300100-
...EAST CENTRAL MISSOURI...

CITY           SKY/WX    TMP DP  RH WIND       PRES   REMARKS
ST LOUIS INTL  MOSUNNY   86  63  45 NW14      30.06R
6HR MIN TEMP:  86; 6HR MAX TEMP:  91;

SPIRIT OF STL  SUNNY     86  65  49 N15       30.05R
6HR MIN TEMP:  85; 6HR MAX TEMP:  89;

ST CHARLES     SUNNY     83  64  52 N10       30.05R
6HR MIN TEMP:  83; 6HR MAX TEMP:  88;


$$
MOZ072>076-082>087-097>100-106>115-300100-
...SOUTH CENTRAL AND SOUTHEAST MISSOURI...

CITY           SKY/WX    TMP DP  RH WIND       PRES   REMARKS
CAPE GIRARDEAU PTSUNNY   88  76  67 N6        29.99R HX  99
6HR MIN TEMP:  83; 6HR MAX TEMP:  96; 6HR PCP:  0.41;

FARMINGTON     MOSUNNY   84  70  61 N7        30.08S
6HR MIN TEMP:  84; 6HR MAX TEMP:  90;

POPLAR BLUFF   SUNNY     87  77  72 N10       29.98R HX  99
6HR MIN TEMP:  87; 6HR MAX TEMP:  97;

WEST PLAINS    MOSUNNY   84  72  67 N8        30.08R
6HR MIN TEMP:  84; 6HR MAX TEMP:  94;


$$


USA.gov is the U.S. government's official web portal to all federal, state and local government web resources and services.